Change the Weather History Date:

Friday, January 21, 2005

  Actual Average Record
Temperature  
Mean Temperature -12 °F -  
Max Temperature -5 °F 19 °F 55 °F (2006)
Min Temperature -20 °F 0 °F -20 °F (2005)
Degree Days  
Heating Degree Days 78    
Moisture  
Dew Point -20 °F    
Average Humidity 62    
Maximum Humidity 74    
Minimum Humidity 49    
Precipitation  
Precipitation 0.00 in - - ()
Sea Level Pressure  
Sea Level Pressure 30.14 in    
Wind  
Wind Speed 6 mph (WNW)    
Max Wind Speed 12 mph    
Max Gust Speed 18 mph    
Visibility 10 miles    
Events      
Averages and records for this station are not official NWS values.
T = Trace of Precipitation, MM = Missing Value Source: NWS Daily Summary

Daily Weather History Graph

Daily Weather History Graph

Search for Another Location

Airport or City:

Trip Planner

Search our weather history database for the weather conditions in past years. The results will help you decide how hot, cold, wet, or windy it might be!

Date:

Astronomy

Jan. 21, 2005 Rise Set
Actual Time 7:13 AM EST 4:38 PM EST
Civil Twilight 6:42 AM EST 5:10 PM EST
Nautical Twilight 6:06 AM EST 5:46 PM EST
Astronomical Twilight 5:31 AM EST 6:20 PM EST
Moon 1:01 PM EST (1/21) 4:44 AM EST (1/21)
Length of Visible Light 10h 28m
Length of Day
9h 24m
Waxing Gibbous, 88% of the Moon is Illuminated
Jan 21
Waxing Gibbous
Jan 25
Full
Feb 2
Last Quarter
Feb 8
New
Feb 15
First Quarter

Hourly Weather History & Observations

Time (EST) Temp. Windchill Dew Point Humidity Pressure Visibility Wind Dir Wind Speed Gust Speed Precip Events Conditions
12:19 AM -5.8 °F -16.7 °F -13.0 °F 71% 29.90 in 10.0 mi Variable 4.6 mph - N/A   Mostly Cloudy
12:52 AM -6.0 °F -14.7 °F -15.0 °F 65% 29.99 in 10.0 mi Variable 3.5 mph - N/A   Scattered Clouds
1:06 AM -5.8 °F -16.7 °F -13.0 °F 71% 29.89 in 8.0 mi Variable 4.6 mph - N/A   Mostly Cloudy
1:52 AM -6.0 °F -16.9 °F -14.1 °F 68% 29.99 in 7.0 mi Variable 4.6 mph - N/A   Mostly Cloudy
2:52 AM -7.1 °F -21.4 °F -15.0 °F 68% 30.01 in 6.0 mi Variable 6.9 mph 17.3 mph N/A   Haze
3:39 AM -9.4 °F -25.6 °F -16.6 °F 71% 29.92 in 10.0 mi WNW 8.1 mph 17.3 mph N/A   Scattered Clouds
4:52 AM -9.9 °F -24.9 °F -20.0 °F 61% 30.04 in 10.0 mi Variable 6.9 mph - N/A   Partly Cloudy
5:52 AM -11.0 °F -27.6 °F -20.9 °F 62% 30.07 in 10.0 mi WNW 8.1 mph - N/A   Mostly Cloudy
6:52 AM -13.0 °F -28.6 °F -20.9 °F 68% 30.09 in 9.0 mi WNW 6.9 mph - N/A   Scattered Clouds
7:52 AM -14.1 °F -32.6 °F -23.1 °F 64% 30.12 in 10.0 mi WNW 9.2 mph - N/A   Clear
8:52 AM -14.1 °F -33.7 °F -24.0 °F 61% 30.14 in 10.0 mi WNW 10.4 mph 17.3 mph N/A   Scattered Clouds
9:21 AM -13.0 °F -33.4 °F -23.8 °F 59% 30.03 in 10.0 mi WNW 11.5 mph 18.4 mph N/A   Mostly Cloudy
9:42 AM -11.2 °F -27.8 °F -23.8 °F 54% 30.04 in 10.0 mi WNW 8.1 mph - N/A   Mostly Cloudy
9:52 AM -11.9 °F -27.3 °F -24.0 °F 55% 30.16 in 10.0 mi Variable 6.9 mph - N/A   Partly Cloudy
10:52 AM -9.9 °F -29.6 °F -22.0 °F 55% 30.15 in 10.0 mi West 11.5 mph - N/A   Clear
11:52 AM -8.0 °F -25.0 °F -22.0 °F 50% 30.14 in 10.0 mi WNW 9.2 mph - N/A   Clear
12:52 PM -6.0 °F -21.5 °F -20.9 °F 49% 30.13 in 10.0 mi WNW 8.1 mph - N/A   Clear
1:52 PM -5.1 °F -23.5 °F -20.0 °F 49% 30.14 in 10.0 mi West 11.5 mph 16.1 mph N/A   Clear
2:52 PM -6.0 °F -24.6 °F -20.0 °F 51% 30.17 in 10.0 mi West 11.5 mph 17.3 mph N/A   Clear
3:52 PM -6.0 °F -22.6 °F -20.0 °F 51% 30.20 in 10.0 mi West 9.2 mph - N/A   Clear
4:52 PM -9.0 °F -22.3 °F -20.0 °F 59% 30.22 in 10.0 mi Variable 5.8 mph - N/A   Clear
5:52 PM -9.9 °F -26.3 °F -20.9 °F 59% 30.25 in 10.0 mi WNW 8.1 mph - N/A   Clear
6:52 PM -11.9 °F -25.7 °F -20.9 °F 64% 30.30 in 10.0 mi WNW 5.8 mph - N/A   Clear
7:52 PM -13.0 °F -25.1 °F -20.9 °F 68% 30.32 in 10.0 mi Variable 4.6 mph - N/A   Clear
8:52 PM -15.0 °F - -23.1 °F 67% 30.34 in 10.0 mi Calm Calm - N/A   Clear
9:52 PM -20.0 °F -30.7 °F -26.0 °F 74% 30.35 in 10.0 mi Variable 3.5 mph - N/A   Clear
10:52 PM -18.0 °F - -24.0 °F 74% 30.35 in 10.0 mi Calm Calm - N/A   Clear
11:52 PM -20.0 °F - -26.0 °F 74% 30.35 in 10.0 mi Calm Calm - N/A   Clear